| time (UTC) | temp F | wind direction | speed knots | gust knots | rain 1hr in | rain 24hr in | rain mn in | humidity % | barometer mb |
| 20260508203039 | 56 | 360 | 5.2 | 13.9 | 0.00 | 0.10 | 0.00 | 58 | 1001.8 |
| 20260508201532 | 56 | 335 | 3.5 | 9.6 | 0.00 | 0.10 | 0.00 | 61 | 1001.9 |
| 20260508200033 | 56 | 21 | 5.2 | 12.2 | 0.00 | 0.10 | 0.00 | 59 | 1001.9 |
| 20260508194533 | 55 | 355 | 3.5 | 13.9 | 0.00 | 0.29 | 0.00 | 61 | 1001.8 |
| 20260508193031 | 55 | 331 | 4.3 | 12.2 | 0.00 | 0.29 | 0.00 | 58 | 1001.9 |
| 20260508191534 | 56 | 5 | 4.3 | 13.0 | 0.00 | 0.29 | 0.00 | 55 | 1001.8 |
| 20260508190038 | 55 | 355 | 3.5 | 8.7 | 0.00 | 0.29 | 0.00 | 58 | 1001.8 |
| 20260508184536 | 53 | 347 | 2.6 | 8.7 | 0.00 | 0.55 | 0.00 | 61 | 1002.1 |
| 20260508183032 | 54 | 333 | 2.6 | 10.4 | 0.00 | 0.55 | 0.00 | 59 | 1002.0 |
| 20260508181535 | 56 | 339 | 3.5 | 8.7 | 0.00 | 0.55 | 0.00 | 57 | 1001.7 |
| 20260508180032 | 56 | 360 | 2.6 | 13.0 | 0.00 | 0.55 | 0.00 | 60 | 1001.9 |
| 20260508174552 | 53 | 149 | 4.3 | 8.7 | 0.00 | 0.55 | 0.00 | 75 | 1002.0 |
| 20260508173032 | 51 | 141 | 5.2 | 8.7 | 0.00 | 0.55 | 0.00 | 77 | 1002.2 |
| 20260508171535 | 52 | 131 | 3.5 | 7.0 | 0.00 | 0.55 | 0.00 | 77 | 1002.0 |
| 20260508170035 | 51 | 0 | 1.7 | 4.3 | 0.00 | 0.55 | 0.00 | 78 | 1002.1 |
| 20260508164537 | 50 | 92 | 1.7 | 7.8 | 0.00 | 0.55 | 0.00 | 80 | 1002.2 |
| 20260508163055 | 50 | 113 | 4.3 | 7.0 | 0.00 | 0.55 | 0.00 | 77 | 1001.9 |
| 20260508161532 | 52 | 25 | 0.9 | 7.0 | 0.00 | 0.55 | 0.00 | 79 | 1002.1 |
| 20260508160034 | 51 | 103 | 4.3 | 7.8 | 0.00 | 0.55 | 0.00 | 79 | 1001.9 |
| 20260508154532 | 50 | 111 | 0.9 | 6.1 | 0.00 | 0.55 | 0.00 | 81 | 1002.2 |
| 20260508153033 | 50 | 103 | 2.6 | 7.8 | 0.00 | 0.55 | 0.00 | 84 | 1002.6 |
| 20260508151539 | 49 | 94 | 4.3 | 7.8 | 0.00 | 0.55 | 0.00 | 82 | 1002.6 |
| 20260508150032 | 50 | 112 | 3.5 | 7.0 | 0.00 | 0.55 | 0.00 | 81 | 1002.5 |
| 20260508144536 | 49 | 96 | 2.6 | 7.0 | 0.00 | 0.55 | 0.00 | 82 | 1002.7 |
| 20260508143032 | 48 | 105 | 4.3 | 7.0 | 0.00 | 0.55 | 0.00 | 83 | 1002.7 |
| 20260508141532 | 49 | 99 | 4.3 | 7.0 | 0.00 | 0.55 | 0.00 | 82 | 1002.9 |
| 20260508140032 | 48 | 55 | 1.7 | 7.0 | 0.00 | 0.55 | 0.00 | 86 | 1003.1 |
| 20260508134536 | 49 | 68 | 3.5 | 7.0 | 0.00 | 0.55 | 0.00 | 86 | 1003.2 |
| 20260508133034 | 49 | 91 | 0.9 | 5.2 | 0.00 | 0.55 | 0.00 | 87 | 1002.7 |
| 20260508131531 | 49 | 103 | 2.6 | 6.1 | 0.00 | 0.55 | 0.00 | 88 | 1002.9 |
| 20260508130049 | 48 | 0 | 0.0 | 7.0 | 0.00 | 0.55 | 0.00 | 89 | 1002.7 |
| 20260508124533 | 48 | 89 | 1.7 | 4.3 | 0.00 | 0.55 | 0.00 | 90 | 1002.6 |
| 20260508123036 | 47 | 84 | 1.7 | 6.1 | 0.00 | 0.55 | 0.00 | 91 | 1002.6 |
| 20260508121535 | 48 | 82 | 1.7 | 5.2 | 0.00 | 0.55 | 0.00 | 91 | 1002.8 |
| 20260508120032 | 48 | 39 | 0.0 | 4.3 | 0.00 | 0.55 | 0.00 | 92 | 1002.9 |
| 20260508114531 | 47 | 0 | 0.0 | 1.7 | 0.00 | 0.55 | 0.00 | 94 | 1002.8 |
| 20260508113035 | 46 | 215 | 0.9 | 2.6 | 0.00 | 0.55 | 0.00 | 96 | 1002.9 |
| 20260508111535 | 44 | 0 | 0.0 | 0.9 | 0.00 | 0.55 | 0.00 | 96 | 1003.4 |
| 20260508110046 | 44 | 0 | 0.0 | 0.0 | 0.00 | 0.55 | 0.00 | 97 | 1003.3 |
| 20260508104533 | 43 | 0 | 0.0 | 0.9 | 0.00 | 0.55 | 0.00 | 96 | 1003.2 |
| 20260508103037 | 43 | 0 | 0.0 | 0.0 | 0.00 | 0.55 | 0.00 | 97 | 1003.2 |
| 20260508101536 | 42 | 0 | 0.0 | 0.0 | 0.00 | 0.55 | 0.00 | 97 | 1002.9 |
| 20260508100030 | 41 | 0 | 0.0 | 0.0 | 0.00 | 0.55 | 0.00 | 97 | 1002.7 |
| 20260508094544 | 40 | 0 | 0.0 | 0.0 | 0.00 | 0.55 | 0.00 | 96 | 1002.4 |
| 20260508093050 | 40 | 0 | 0.0 | 0.0 | 0.00 | 0.55 | 0.00 | 96 | 1002.5 |
| 20260508091533 | 40 | 0 | 0.0 | 2.6 | 0.00 | 0.55 | 0.00 | 96 | 1002.5 |
| 20260508090053 | 40 | 0 | 0.0 | 0.9 | 0.00 | 0.55 | 0.00 | 96 | 1002.4 |
| 20260508084530 | 41 | 0 | 0.0 | 0.0 | 0.00 | 0.55 | 0.00 | 95 | 1002.0 |
| 20260508083032 | 41 | 0 | 0.0 | 0.0 | 0.00 | 0.55 | 0.00 | 95 | 1001.9 |
| 20260508081532 | 42 | 0 | 0.0 | 0.9 | 0.00 | 0.55 | 0.00 | 95 | 1001.7 |
| 20260508080038 | 42 | 0 | 0.0 | 0.0 | 0.00 | 0.55 | 0.00 | 95 | 1001.8 |
| 20260508074540 | 43 | 0 | 0.0 | 0.0 | 0.00 | 0.55 | 0.00 | 95 | 1002.2 |
| 20260508073032 | 43 | 0 | 0.0 | 0.9 | 0.00 | 0.55 | 0.00 | 95 | 1002.2 |
| 20260508071532 | 44 | 0 | 0.0 | 4.3 | 0.00 | 0.55 | 0.00 | 95 | 1002.2 |
| 20260508070031 | 44 | 0 | 0.0 | 4.3 | 0.00 | 0.55 | 0.00 | 95 | 1002.2 |
| 20260508064532 | 44 | 0 | 0.0 | 0.9 | 0.00 | 0.55 | 0.00 | 95 | 1002.1 |
| 20260508063035 | 45 | 0 | 0.0 | 1.7 | 0.00 | 0.55 | 0.00 | 94 | 1002.1 |
| 20260508061532 | 45 | 0 | 0.0 | 0.0 | 0.00 | 0.55 | 0.00 | 95 | 1001.9 |
| 20260508060033 | 45 | 0 | 0.0 | 1.7 | 0.00 | 0.55 | 0.00 | 95 | 1002.2 |
| 20260508054531 | 45 | 0 | 0.0 | 0.0 | 0.00 | 0.55 | 0.00 | 95 | 1002.2 |
| 20260508053032 | 45 | 0 | 0.0 | 0.9 | 0.00 | 0.55 | 0.00 | 95 | 1002.3 |
| 20260508051530 | 45 | 0 | 0.0 | 0.9 | 0.00 | 0.55 | 0.00 | 94 | 1001.9 |
| 20260508050039 | 44 | 0 | 0.0 | 0.0 | 0.00 | 0.55 | 0.00 | 94 | 1002.1 |
| 20260508044536 | 44 | 0 | 0.0 | 1.7 | 0.00 | 0.55 | 0.00 | 94 | 1001.9 |
| 20260508043031 | 44 | 0 | 0.0 | 2.6 | 0.00 | 0.55 | 0.00 | 93 | 1002.2 |
| 20260508041539 | 45 | 0 | 0.0 | 7.0 | 0.00 | 0.55 | 0.00 | 92 | 1002.2 |
| 20260508040032 | 46 | 0 | 0.0 | 4.3 | 0.00 | 0.55 | 0.00 | 92 | 1002.3 |
| 20260508034534 | 48 | 122 | 0.9 | 7.0 | 0.00 | 0.55 | 0.00 | 91 | 1002.2 |
| 20260508033037 | 49 | 81 | 0.9 | 2.6 | 0.00 | 0.55 | 0.00 | 90 | 1002.4 |
| 20260508031538 | 50 | 0 | 0.0 | 1.7 | 0.00 | 0.55 | 0.00 | 89 | 1002.2 |
| 20260508030039 | 50 | 192 | 2.6 | 10.4 | 0.00 | 0.55 | 0.00 | 87 | 1002.0 |
| 20260508024530 | 51 | 0 | 0.9 | 7.0 | 0.00 | 0.55 | 0.55 | 86 | 1002.0 |
| 20260508023041 | 51 | 277 | 3.5 | 15.6 | 0.00 | 0.55 | 0.55 | 85 | 1001.9 |
| 20260508021535 | 51 | 292 | 7.8 | 13.9 | 0.00 | 0.55 | 0.55 | 87 | 1002.1 |
| 20260508020034 | 51 | 201 | 7.0 | 15.6 | 0.00 | 0.55 | 0.55 | 89 | 1002.1 |
| 20260508014534 | 51 | 215 | 1.7 | 8.7 | 0.00 | 0.55 | 0.55 | 90 | 1002.3 |
| 20260508013032 | 51 | 0 | 0.0 | 5.2 | 0.00 | 0.55 | 0.55 | 90 | 1002.1 |
| 20260508011534 | 51 | 280 | 2.6 | 12.2 | 0.00 | 0.55 | 0.55 | 90 | 1002.1 |
| 20260508010040 | 51 | 273 | 2.6 | 7.0 | 0.00 | 0.55 | 0.55 | 91 | 1002.3 |
| 20260508004534 | 51 | 0 | 4.3 | 11.3 | 0.00 | 0.55 | 0.55 | 93 | 1002.3 |
| 20260508003032 | 52 | 196 | 6.1 | 13.9 | 0.00 | 0.55 | 0.55 | 93 | 1002.2 |
| 20260508001535 | 51 | 261 | 0.9 | 7.0 | 0.00 | 0.55 | 0.55 | 96 | 1002.2 |
| 20260508000033 | 51 | 0 | 2.6 | 7.0 | 0.00 | 0.55 | 0.55 | 96 | 1001.9 |
| 20260507234537 | 51 | 0 | 0.0 | 0.0 | 0.00 | 0.55 | 0.55 | 96 | 1001.6 |
| 20260507233034 | 51 | 0 | 0.0 | 0.0 | 0.00 | 0.55 | 0.55 | 96 | 1001.7 |
| 20260507231534 | 51 | 0 | 0.0 | 0.0 | 0.00 | 0.55 | 0.55 | 96 | 1001.5 |
| 20260507230035 | 51 | 0 | 0.0 | 3.5 | 0.00 | 0.55 | 0.55 | 94 | 1001.5 |
| 20260507224550 | 53 | 0 | 0.0 | 0.0 | 0.00 | 0.55 | 0.55 | 94 | 1001.4 |
| 20260507223034 | 54 | 0 | 0.0 | 0.9 | 0.00 | 0.55 | 0.55 | 95 | 1001.6 |
| 20260507221538 | 54 | 0 | 0.0 | 2.6 | 0.00 | 0.55 | 0.55 | 95 | 1001.5 |
| 20260507220038 | 54 | 0 | 0.0 | 3.5 | 0.00 | 0.55 | 0.55 | 96 | 1001.5 |
| 20260507214538 | 54 | 0 | 0.0 | 1.7 | 0.00 | 0.55 | 0.55 | 96 | 1001.5 |
| 20260507213036 | 53 | 0 | 0.0 | 0.0 | 0.01 | 0.55 | 0.55 | 96 | 1001.5 |
| 20260507211535 | 52 | 0 | 0.0 | 1.7 | 0.03 | 0.55 | 0.55 | 96 | 1001.8 |
| 20260507210058 | 52 | 168 | 2.6 | 7.0 | 0.10 | 0.55 | 0.55 | 95 | 1001.8 |
| 20260507204536 | 52 | 338 | 0.9 | 3.5 | 0.15 | 0.55 | 0.55 | 96 | 1001.5 |